Location: Plainartige
(45.6866°N, 1.7993°E)
Time: 18:30:47
(UTC+00:00)

Envisat - Pass Details

Date: 24 January 2022
Orbit: 764 x 765 km, 98.2° (Epoch: 19 May)

Event Time Altitude Azimuth Distance (km) Brightness Sun altitude
Rises 03:51:51 0° 24° (NNE) 3,240 6.6 -36.7°
Reaches altitude 10° 03:54:33 10° 37° (NE) 2,309 5.9 -36.2°
Maximum altitude 03:58:45 26° 93° (E) 1,490 5.0 -35.5°
Drops below altitude 10° 04:02:55 10° 149° (SSE) 2,296 5.7 -34.8°
Sets 04:05:35 0° 162° (SSE) 3,217 6.3 -34.3°
